STARLINK-36930, 68018

Orbit data source: Space-Track

STARLINK-36930, 68018 is a payload satellite owned by SpaceX/Seattle (US) in SSO that was launched on Sun, 01 Mar 2026 UTC via an FALCON 9 launch vehicle from the Air Force Western Test Range (AFWTR). Payload-class satellites include a variety of spacecraft equipped with specific instruments for various scientific and technological missions. These include communications satellites like Starlink; space stations such as the ISS; scientific satellites like the Hubble; Earth observation satellites from companies like Planet Labs, Umbra, and HawkEye 360; GPS; miniature CubeSats for education and research; and military/defense satellites.

Loading next visibility...
Identifier
68018, 2026-040D
Orbit
SSO
Country
Flag of USUS
Related business
Manufacturer
SpaceX/Seattle
Mission
Operational Commercial Communications
Bus & Motor
STARLINK V2MO, Unknown motor
Mass
575 kg wet, ~530 kg dry
Launch date (UTC)
2026-03-01 (4 months ago)
Launch vehicle
FALCON 9
Launch site
Air Force Western Test Range (AFWTR)
Object type
Payload
Rocket body
Debris
Shape & HBR
Box + 2 Pan, 17.7 m
Radar Cross Section
36.964 m², Large (>1 m²)

Expand to show TLE details & history
Last TLE update: 10 hours ago

TLE from 10 hours ago
0 STARLINK-36930
1 68018U 26040D   26171.42876323  .00015240  00000-0  47334-3 0  9993
2 68018  97.2836 120.0062 0001168  94.9392 265.1984 15.33450155 17200
Epoch: 2026-06-20T10:17Z
TLE epoch observation values (Epoch: 2026-06-20T10:17:25.143Z)
Latitude
-0.00001°
Longitude
57.00792°
Altitude
468.707 km
Speed
7.632 km/s
True Right ascension
08h 00m 01s
True Declination
0° 00' 00"
Sunlit
Object was in daylight at epoch
Visualization orbit readout
Latitude
Unknown
Longitude
Unknown
Altitude
Unknown
Speed
Unknown
Apparent Right ascension
Unknown
Apparent Declination
Unknown
Sunlit
N/A
Visualization observer readout
Local Sidereal Time
07:14:11
Azimuth
Unknown
Elevation
Unknown
Doppler factor
Unknown
Orbital elements
Apogee altitude
463.27 km
Perigee altitude
461.672 km
Semi-major axis
6,840.608 km
Eccentricity
0.00012
Inclination
97.2836°
RAAN
120.0062°
Arg. of periapsis
94.9392°
True anomaly
265.18506°
Mean anomaly
265.1984°
Eccentric anomaly
265.19173°
Mean motion
3.8362 °/min
Orbital period
93.84 mins
BSTAR
0.00047334
Loading maneuver chart data...
Computing Atmospheric mass density...
Loading historical data...
Loading historical data...
Loading historical data...
Loading historical data...
Loading historical data...
Loading historical data...
Loading historical data...

Documentation

Showing up to 5 results
|